Date String (YYYY-MM-DD hh:mm:ss) UTC,Instrument flags,Ambient pressure (hPa),Sample flow (lpm),Bypass flow (lpm),Sample temperature (°C),Ambient temperature (°C),ASC tube jacket temperature (°C),LED temperature (°C),Box temperature (°C),Sample RH (%),Span deviation,Mass concentration (μg/m³),Mass concentration (μg/m³),Mass concentration (μg/m³)
DateTimeUTC,F1_M11,P_M11,Q1_M11,Q2_M11,T1_M11,T2_M11,T3_M11,T4_M11,T5_M11,U1_M11,ZSPAN_M11,X2_M11,X0_M11,X1_M11
2023-05-11 22:00:00,,0824.9,5.00,0.00,27.2,25.7,00.0,35.5,28.9,29.7,0000.0,0002.77,0004.97,0001.72
2023-05-11 22:01:00,,0824.9,5.00,0.00,27.2,25.7,00.0,35.5,28.9,29.9,0000.0,0002.77,0005.01,0001.70
2023-05-11 22:02:00,,0824.9,5.00,0.00,27.2,25.8,00.0,35.5,28.9,29.8,0000.0,0002.78,0004.99,0001.68
2023-05-11 22:03:00,,0824.9,5.00,0.00,27.2,25.8,00.0,35.5,28.9,29.6,0000.0,0002.78,0004.93,0001.68
2023-05-11 22:04:00,,0824.9,5.00,0.00,27.2,25.8,00.0,35.5,28.9,29.4,0000.0,0002.77,0004.92,0001.70
2023-05-11 22:05:00,,0824.9,5.00,0.00,27.2,25.8,00.0,35.5,28.9,29.5,0000.0,0002.79,0005.00,0001.70
2023-05-11 22:06:00,,0824.9,5.00,0.00,27.2,25.8,00.0,35.5,28.9,29.6,0000.0,0002.84,0005.23,0001.69
2023-05-11 22:07:00,,0824.9,5.00,0.00,27.3,25.8,00.0,35.6,29.0,30.0,0000.0,0002.82,0005.16,0001.69
2023-05-11 22:08:00,,0824.9,5.00,0.00,27.3,25.8,00.0,35.6,29.0,29.9,0000.0,0002.76,0004.90,0001.67
2023-05-11 22:09:00,,0824.9,5.00,0.00,27.3,25.8,00.0,35.6,29.0,29.8,0000.0,0002.75,0004.86,0001.68
2023-05-11 22:10:00,,0824.9,5.00,0.00,27.3,25.8,00.0,35.6,29.0,29.8,0000.0,0002.74,0004.80,0001.70
2023-05-11 22:11:00,,0824.9,5.00,0.00,27.3,25.8,00.0,35.6,29.0,29.9,0000.0,0002.75,0004.81,0001.71
2023-05-11 22:12:00,,0824.9,5.00,0.00,27.3,25.8,00.0,35.6,29.0,29.9,0000.0,0002.76,0004.83,0001.73
2023-05-11 22:13:00,,0824.8,5.00,0.00,27.3,25.8,00.0,35.6,29.0,30.0,0000.0,0002.73,0004.86,0001.75
2023-05-11 22:14:00,,0824.8,5.00,0.00,27.3,25.8,00.0,35.6,29.0,29.9,0000.0,0002.73,0004.89,0001.74
2023-05-11 22:15:00,,0824.8,5.00,0.00,27.3,25.8,00.0,35.6,29.0,29.7,0000.0,0002.75,0004.87,0001.75
2023-05-11 22:16:00,,0824.7,5.00,0.00,27.3,25.8,00.0,35.6,29.0,29.6,0000.0,0002.77,0004.88,0001.79
2023-05-11 22:17:00,,0824.7,5.00,0.00,27.3,25.8,00.0,35.6,29.0,29.7,0000.0,0002.73,0004.72,0001.81
2023-05-11 22:18:00,,0824.8,5.00,0.00,27.3,25.8,00.0,35.6,29.0,29.7,0000.0,0002.86,0005.02,0001.85
2023-05-11 22:19:00,,0824.7,5.00,0.00,27.3,25.9,00.0,35.7,29.1,29.6,0000.0,0002.88,0005.02,0001.89
2023-05-11 22:20:00,,0824.8,5.00,0.00,27.3,25.9,00.0,35.7,29.1,29.7,0000.0,0002.83,0004.82,0001.89
2023-05-11 22:21:00,,0824.7,5.00,0.00,27.4,25.9,00.0,35.7,29.1,30.0,0000.0,0002.82,0004.81,0001.90
2023-05-11 22:22:00,,0824.8,5.00,0.00,27.4,25.9,00.0,35.7,29.1,29.9,0000.0,0002.86,0004.91,0001.92
2023-05-11 22:23:00,,0824.7,5.01,0.00,27.4,25.9,00.0,35.7,29.1,29.9,0000.0,0002.91,0005.01,0001.93
2023-05-11 22:24:00,,0824.7,5.00,0.00,27.4,25.9,00.0,35.7,29.1,29.9,0000.0,0002.98,0005.11,0001.97
2023-05-11 22:25:00,,0824.8,5.00,0.00,27.4,25.9,00.0,35.7,29.1,29.9,0000.0,0002.98,0005.00,0002.01
2023-05-11 22:26:00,,0824.8,5.00,0.00,27.4,25.9,00.0,35.7,29.1,29.8,0000.0,0002.96,0004.92,0002.02
2023-05-11 22:27:00,,0824.7,5.00,0.00,27.4,25.9,00.0,35.7,29.1,29.8,0000.0,0002.98,0004.99,0002.00
2023-05-11 22:28:00,,0824.8,4.99,0.00,27.4,25.9,00.0,35.7,29.1,29.7,0000.0,0003.05,0005.14,0002.01
2023-05-11 22:29:00,,0824.8,5.00,0.00,27.4,25.9,00.0,35.7,29.1,29.6,0000.0,0002.93,0004.83,0002.00
2023-05-11 22:30:00,,0824.8,5.01,0.00,27.4,25.9,00.0,35.7,29.1,29.8,0000.0,0002.92,0004.83,0001.98
2023-05-11 22:31:00,,0824.8,5.00,0.00,27.4,25.9,00.0,35.7,29.1,30.0,0000.0,0002.94,0004.85,0002.00
2023-05-11 22:32:00,,0824.7,5.00,0.00,27.4,25.9,00.0,35.7,29.1,30.0,0000.0,0002.97,0004.93,0002.02
2023-05-11 22:33:00,,0824.7,5.00,0.00,27.4,25.9,00.0,35.7,29.1,29.8,0000.0,0002.96,0004.82,0002.04
2023-05-11 22:34:00,,0824.8,5.01,0.00,27.4,25.9,00.0,35.8,29.1,29.8,0000.0,0002.92,0004.71,0002.05
2023-05-11 22:35:00,,0824.7,5.00,0.00,27.4,25.9,00.0,35.8,29.1,29.9,0000.0,0002.88,0004.61,0002.04
2023-05-11 22:36:00,,0824.7,4.99,0.00,27.4,26.0,00.0,35.8,29.1,29.9,0000.0,0002.86,0004.70,0002.03
2023-05-11 22:37:00,,0824.8,5.01,0.00,27.5,26.0,00.0,35.8,29.1,29.6,0000.0,0002.88,0004.70,0002.06
2023-05-11 22:38:00,,0824.8,5.00,0.00,27.5,26.0,00.0,35.8,29.1,29.7,0000.0,0002.83,0004.54,0002.07
2023-05-11 22:39:00,,0824.7,5.00,0.00,27.5,26.0,00.0,35.8,29.2,29.6,0000.0,0002.85,0004.55,0002.08
2023-05-11 22:40:00,,0824.8,4.99,0.00,27.5,26.0,00.0,35.8,29.2,29.5,0000.0,0002.92,0004.81,0002.11
2023-05-11 22:41:00,,0824.7,5.00,0.00,27.5,26.0,00.0,35.8,29.2,29.5,0000.0,0002.95,0004.86,0002.12
2023-05-11 22:42:00,,0824.7,5.00,0.00,27.5,26.0,00.0,35.8,29.2,29.7,0000.0,0002.94,0004.88,0002.11
2023-05-11 22:43:00,,0824.7,5.00,0.00,27.5,26.0,00.0,35.8,29.2,30.2,0000.0,0002.89,0004.77,0002.09
2023-05-11 22:44:00,,0824.7,5.00,0.00,27.5,26.0,00.0,35.8,29.2,30.0,0000.0,0002.84,0004.75,0002.08
2023-05-11 22:45:00,,0824.7,5.00,0.00,27.5,26.0,00.0,35.8,29.2,29.9,0000.0,0002.87,0004.89,0002.07
2023-05-11 22:46:00,,0824.7,5.00,0.00,27.5,26.0,00.0,35.8,29.2,29.8,0000.0,0002.93,0005.00,0002.08
2023-05-11 22:47:00,,0824.7,5.00,0.00,27.5,26.0,00.0,35.8,29.2,29.9,0000.0,0002.98,0005.17,0002.10
2023-05-11 22:48:00,,0824.7,5.00,0.00,27.5,26.0,00.0,35.8,29.2,30.0,0000.0,0003.02,0005.45,0002.09
2023-05-11 22:49:00,,0824.7,5.01,0.00,27.5,26.0,00.0,35.8,29.2,29.9,0000.0,0003.05,0005.52,0002.09
2023-05-11 22:50:00,,0824.7,5.00,0.00,27.5,26.0,00.0,35.9,29.2,29.7,0000.0,0003.00,0005.39,0002.11
2023-05-11 22:51:00,,0824.7,5.00,0.00,27.5,26.0,00.0,35.9,29.2,29.8,0000.0,0002.97,0005.18,0002.12
2023-05-11 22:52:00,,0824.7,5.00,0.00,27.5,26.0,00.0,35.9,29.2,29.9,0000.0,0002.96,0005.17,0002.12
2023-05-11 22:53:00,,0824.6,5.00,0.00,27.5,26.0,00.0,35.9,29.2,29.8,0000.0,0002.98,0005.19,0002.14
2023-05-11 22:54:00,,0824.6,5.00,0.00,27.5,26.0,00.0,35.9,29.2,29.7,0000.0,0003.02,0005.26,0002.16
2023-05-11 22:55:00,,0824.6,5.00,0.00,27.5,26.0,00.0,35.9,29.2,29.8,0000.0,0003.08,0005.44,0002.20
2023-05-11 22:56:00,,0824.6,5.00,0.00,27.5,26.0,00.0,35.9,29.2,29.8,0000.0,0003.12,0005.70,0002.23
2023-05-11 22:57:00,,0824.6,5.00,0.00,27.5,26.0,00.0,35.9,29.2,29.9,0000.0,0003.15,0005.82,0002.25
2023-05-11 22:58:00,,0824.6,5.00,0.00,27.5,26.0,00.0,35.9,29.3,29.9,0000.0,0003.17,0005.75,0002.26
2023-05-11 22:59:00,,0824.6,4.99,0.00,27.5,26.0,00.0,35.9,29.3,29.8,0000.0,0003.17,0005.62,0002.28
